Flag for Switzerland Weather past 2 weeks in Lugano, Switzerland

Now
59 °F

Broken clouds.


Feels Like: 59 °F
Forecast: 48 / 67 °F
Wind: 1 mph from North

Location: Lugano Airport


UV Index: 0 (Low)

Visibility: N/A


Pressure: 29.68 "Hg

Humidity: 63%

Dew point: 46 °F

Location of LuganoLocation

Historic Weather in Lugano

°F

Lugano temperature yesterday

Maximum temperature yesterday: 52 °F (at 3:20 PM)
Minimum temperature yesterday: 41 °F (at 5:20 AM)
Average temperature yesterday: 46 °F

Past Weeks' High & Low Weather Summary

 TemperatureHumidityPressure
High75 °F (Apr 10, 4:50 PM)100% (Apr 6, 4:50 AM)30.18 "Hg (Apr 6, 4:50 AM)
Low37 °F (Apr 16, 6:20 AM)4% (Apr 15, 4:20 PM)29.65 "Hg (Apr 18, 6:50 PM)
Average56 °F58%29.98 "Hg
* Reported Apr 5 6:20 PM — Apr 20 6:50 PM, Lugano, Weather by CustomWeather, © 2014

Note: Actual official high and low records may vary slightly from our data, if they occured in-between our weather recording intervals... More about our weather records

Advertising

Historic Weather Conditions — Data for Previous 24 hours

 ConditionsComfort  
Time TempWeatherWind HumidityBarometerVisibility
6:50 PM
Apr 20
59 °FScattered showers. Broken clouds.7 mph68%29.68 "HgN/A
6:20 PM61 °FScattered showers. Broken clouds.5 mph59%29.68 "HgN/A
5:50 PM61 °FScattered showers. Broken clouds.2 mph59%29.68 "HgN/A
5:20 PM63 °FScattered showers. Broken clouds.8 mph49%29.68 "HgN/A
4:50 PM64 °FBroken clouds.12 mph49%29.68 "HgN/A
4:20 PM63 °FBroken clouds.10 mph52%29.68 "HgN/A
3:50 PM64 °FBroken clouds.10 mph46%29.68 "HgN/A
3:20 PM66 °FScattered clouds.13 mph46%29.68 "HgN/A
2:50 PM66 °FScattered clouds.10 mph46%29.68 "HgN/A
2:20 PM66 °FScattered clouds.13 mph46%29.68 "HgN/A
1:50 PM64 °FScattered clouds.12 mph46%29.68 "HgN/A
1:20 PM64 °FScattered clouds.5 mph46%29.68 "HgN/A
12:50 PM63 °FPassing clouds.6 mph49%29.68 "HgN/A
12:20 PM63 °FPassing clouds.5 mph45%29.68 "HgN/A
11:50 AM63 °FPassing clouds.2 mph56%29.71 "HgN/A
11:20 AM59 °FPassing clouds.3 mph59%29.71 "HgN/A
10:50 AM57 °FPassing clouds.6 mph63%29.71 "HgN/A
10:20 AM55 °FPassing clouds.5 mph63%29.71 "HgN/A
9:50 AM54 °FPassing clouds.3 mph72%29.71 "HgN/A
9:20 AM52 °FSunny.2 mph72%29.71 "Hg10 mi
8:50 AM48 °FSunny.2 mph82%29.71 "Hg10 mi
8:20 AM43 °FSunny.No wind100%29.71 "Hg10 mi
7:50 AM43 °FSunny.6 mph93%29.71 "Hg10 mi
7:20 AM43 °FClear.1 mph100%29.71 "Hg10 mi
6:50 AM43 °FClear.1 mph93%29.71 "Hg10 mi
6:20 AM43 °FClear.1 mph93%29.71 "Hg10 mi
5:50 AM43 °FPassing clouds.1 mph100%29.71 "Hg5 mi
5:20 AM45 °FMostly cloudy.2 mph93%29.74 "HgN/A
4:50 AM45 °FMostly cloudy.7 mph93%29.74 "HgN/A
4:20 AM43 °FPartly cloudy.3 mph100%29.77 "HgN/A
3:50 AM45 °FOvercast.1 mph93%29.74 "HgN/A
3:20 AM43 °FOvercast.2 mph100%29.77 "HgN/A
2:50 AM43 °FOvercast.2 mph93%29.77 "HgN/A
2:20 AM41 °FPassing clouds.6 mph100%29.77 "Hg5 mi
1:50 AM41 °FPassing clouds.1 mph100%29.77 "Hg5 mi
1:20 AM43 °FQuite cool.1 mph93%29.77 "Hg3 mi
12:50 AM43 °FClear.2 mph93%29.77 "Hg10 mi
12:20 AM43 °FClear.2 mph100%29.77 "Hg10 mi
11:50 PM
Apr 19
43 °FQuite cool.2 mph93%29.80 "HgN/A
11:20 PM46 °FPassing clouds.1 mph93%29.77 "HgN/A
10:50 PM46 °FPassing clouds.2 mph93%29.77 "HgN/A
10:20 PM46 °FOvercast.2 mph93%29.77 "HgN/A
9:50 PM46 °FPassing clouds.1 mph93%29.77 "HgN/A
9:20 PM48 °FPassing clouds.2 mph87%29.77 "HgN/A
8:50 PM48 °FPartly sunny.1 mph94%29.77 "HgN/A
8:20 PM50 °FPartly sunny.3 mph82%29.77 "HgN/A
7:50 PM50 °FBroken clouds.1 mph82%29.74 "HgN/A
7:20 PM50 °FBroken clouds.1 mph82%29.74 "HgN/A
Weather by CustomWeather, © 2014

See weather overview